Regional Weather Roundup
Issued by NWS

Home | Current Version | Previous Version | Text Only | Print | Product List | Glossary On
Versions: 1 2 3 4 5 6 7 8 9 10 11 12 13 14 15 16 17 18 19 20 21 22 23 24 25 26 27 28 29 30 31 32 33 34 35 36 37 38 39 40 41 42 43 44 45 46 47 48 49 50
000
ASUS43 KLSX 240807
RWRMO

WEATHER SUMMARY FOR MISSOURI
NATIONAL WEATHER SERVICE SPRINGFIELD MO
300 AM CDT SUN SEP 24 2017

NOTE: "FAIR" INDICATES FEW OR NO CLOUDS BELOW 12,000 FEET WITH NO
       SIGNIFICANT WEATHER AND/OR OBSTRUCTIONS TO VISIBILITY.
       CURRENT SKY AND/OR WEATHER CONDITIONS ARE NOT AVAILABLE FOR
       CHILLICOTHE AND FARMINGTON.

MOZ001>031-035>038-043-044-053-054-240900-
...NORTHERN AND WESTERN MISSOURI...

CITY           SKY/WX    TMP DP  RH WIND       PRES   REMARKS
KANSAS CTY INT CLEAR     72  67  84 SE9       29.95S
KANSAS C DTWN  CLEAR     78  67  68 SE8       29.94R
LEE`S SUMMIT   CLEAR     75  67  76 SE10      29.96S
ST JOSEPH      CLEAR     67  66  97 NE3       29.94S
CHILLICOTHE      N/A     72  66  81 S3        29.97S
KIRKSVILLE     CLEAR     69  62  78 SE6       30.00S

$$
MOZ066>068-077>081-088>096-101>105-240900-
...SOUTHWEST MISSOURI...

CITY           SKY/WX    TMP DP  RH WIND       PRES   REMARKS
SPRINGFIELD    CLEAR     70  65  84 SE7       29.99S
JOPLIN         CLEAR     73  66  78 SE10      29.96S
BRANSON          N/A     66  63  88 CALM      30.01S

$$
MOZ032>034-039>042-045>050-055>058-069>072-240900-
...CENTRAL MISSOURI...

CITY           SKY/WX    TMP DP  RH WIND       PRES   REMARKS
COLUMBIA       CLEAR     72  64  76 SE7       30.00S
JEFFERSON CITY CLEAR     71  63  75 SE3       29.99R
ROLLA          CLEAR     68  63  84 S6        30.02S
SEDALIA        CLEAR     70  67  90 SE6       29.99S
WHITEMAN AFB   CLEAR     73  73  99 S6        29.96R
WARRENSBURG    CLEAR     70  64  83 S5        29.96R
OSAGE BEACH    CLEAR     69  64  84 SE5       30.01R

$$
MOZ051-052-059>065-240900-
...EAST CENTRAL MISSOURI...

CITY           SKY/WX    TMP DP  RH WIND       PRES   REMARKS
ST LOUIS INTL  CLEAR     74  63  68 SE8       30.02R
SPIRIT OF STL  CLEAR     67  66  97 CALM      30.00S
ST CHARLES     CLEAR     67  63  87 E7        30.00S

$$
MOZ072>076-082>087-097>100-106>115-240900-
...SOUTH CENTRAL AND SOUTHEAST MISSOURI...

CITY           SKY/WX    TMP DP  RH WIND       PRES   REMARKS
CAPE GIRARDEAU CLEAR     66  64  93 CALM      30.00S
FARMINGTON     CLEAR     64  62  93 CALM      30.04S
POPLAR BLUFF   PTCLDY    69  66  90 NE3       29.99S
WEST PLAINS    CLEAR     65  62  90 CALM      30.03F

$$


USA.gov is the U.S. government's official web portal to all federal, state and local government web resources and services.